Wind_Speed
13 11 11 10 9 9 9 9 7 7 7 9 9 11 13 12 13 13 14 14 14 14 15 17 18 17 16 14 14 13 14 14 8 9 12 14 17 20 19 18 20 23 26
17 13 12 11 11 10 10 8 7 8 9 10 11 12 12 13 13 13 13 13 13 15 16 17 19 18 18 18 15 15 14 14 12 12 14 16 17 18 17 16 17 19 22
17 16 13 11 13 12 11 10 9 9 10 12 13 12 12 13 13 12 11 11 13 14 16 17 18 19 19 18 18 17 15 14 14 12 13 15 15 22 19 16 13 17 16
19 16 16 13 12 12 12 10 10 9 11 11 11 11 12 11 11 11 11 11 13 14 15 16 17 19 19 18 19 18 17 15 14 14 15 16 18 20 19 20 18 10 17
20 18 16 14 13 12 11 10 10 9 10 11 10 11 10 9 7 8 11 12 12 13 14 14 16 16 18 19 20 20 18 17 16 15 15 16 20 21 22 19 18 15 9
21 18 18 16 14 12 12 11 11 10 10 9 9 9 9 8 8 10 9 11 12 12 13 13 14 15 14 17 17 20 21 19 17 17 16 17 18 20 19 18 16 15 10
21 20 19 17 15 14 13 13 12 11 10 10 9 8 9 8 8 11 11 9 11 12 13 13 14 16 14 14 14 15 18 20 18 17 16 18 18 20 18 16 15 11 11
24 21 20 18 17 16 15 14 12 11 11 10 9 8 8 7 7 12 9 8 10 12 12 13 13 15 16 14 13 14 15 16 19 17 16 15 18 21 18 14 14 7 4
25 22 21 19 18 18 16 15 13 13 11 10 9 9 9 8 6 8 6 6 8 9 11 13 12 13 16 15 12 12 13 15 13 14 14 16 17 21 23 17 19 14 10
23 23 21 20 19 18 17 16 14 13 12 11 9 9 10 8 6 7 6 5 5 6 7 8 13 13 14 15 12 12 11 13 14 14 14 14 16 18 21 20 19 17 16
23 23 21 19 19 18 17 15 14 13 12 11 10 8 7 8 5 6 7 5 4 4 4 5 7 10 11 12 12 11 10 10 11 11 12 13 14 16 17 17 16 15 15
24 23 21 20 18 18 17 15 14 13 12 11 11 9 7 6 7 5 5 6 6 4 4 4 5 7 8 11 10 11 11 10 10 10 11 12 13 14 15 14 13 11 10
24 23 22 20 18 18 18 16 15 14 12 11 11 10 9 7 6 7 7 6 6 4 4 3 4 7 7 7 11 12 11 10 10 10 11 12 12 12 12 13 11 12 8
24 23 21 21 19 18 17 16 14 14 12 11 10 10 10 9 8 8 6 5 4 4 4 3 4 6 9 8 8 10 10 10 9 10 11 11 11 12 12 12 13 13 11
23 22 21 19 19 18 17 16 14 13 12 11 10 10 11 11 10 9 8 6 4 3 2 2 4 6 7 8 8 8 8 9 9 10 10 11 11 12 12 12 12 13 12
21 20 20 18 19 17 17 14 14 11 15 13 11 10 10 9 12 12 10 8 6 2 1 3 4 6 7 8 8 8 7 8 9 9 10 10 11 12 13 12 11 11 12
20 19 18 17 18 18 16 15 13 10 11 12 11 12 12 13 13 10 12 10 7 2 3 2 4 5 7 7 7 7 7 7 8 8 9 10 11 12 12 12 12 11 12
17 18 17 18 17 16 15 14 13 13 14 12 12 14 14 13 13 10 11 12 6 5 4 3 4 5 6 6 6 7 7 7 7 8 8 9 10 11 12 12 12 12 13
16 16 16 16 15 15 14 14 13 13 12 12 11 13 13 14 13 12 12 14 9 6 5 4 3 4 5 5 5 5 6 6 6 7 8 8 10 11 11 11 12 12 13
15 16 17 15 15 15 14 14 13 13 13 13 13 13 14 14 15 14 14 14 10 8 6 4 3 4 5 5 5 5 6 6 7 7 7 8 9 10 10 11 11 13 12
15 14 16 14 14 14 14 14 14 13 13 13 13 12 13 13 14 14 14 11 10 8 6 4 4 4 4 4 4 5 6 6 6 6 7 8 9 10 10 10 11 11 12
15 14 15 13 12 13 13 13 13 12 12 12 11 10 15 13 11 9 10 10 8 7 5 4 3 4 4 4 5 5 6 6 6 7 8 8 9 10 10 11 11 11 12
14 14 13 12 11 11 11 11 11 11 11 11 10 10 10 11 9 9 10 10 8 6 4 3 3 3 3 3 4 4 5 5 6 6 6 8 9 10 11 11 11 11 10
13 13 12 10 10 11 11 10 9 9 9 9 9 9 9 9 9 9 9 9 7 5 4 3 3 4 4 3 3 4 4 5 5 6 7 8 10 11 11 11 10 10 10
13 12 11 11 11 10 10 9 9 9 9 8 8 8 8 9 9 9 8 7 6 5 4 4 3 4 4 5 6 6 7 10 7 9 8 10 11 12 11 10 9 10 10
11 11 11 11 11 10 10 9 9 8 8 8 8 8 9 9 8 8 7 6 6 5 5 4 4 5 5 3 4 5 9 10 9 10 10 8 9 9 9 9 9 10 10
Wind_Direction
160 151 144 140 131 118 107 102 104 99 90 80 72 66 59 55 54 53 52 46 45 41 37 33 31 27 25 19 16 14 15 8 350 10 5 4 11 9 15 21 24 29 34
161 157 149 140 128 120 118 123 121 104 88 82 75 71 67 60 56 58 53 48 49 44 39 36 32 27 28 25 21 19 19 19 10 6 11 7 10 6 7 20 22 26 31
165 157 151 138 137 132 129 119 116 107 98 91 88 81 72 64 58 59 61 57 51 49 43 41 34 31 29 24 24 22 19 22 21 17 11 9 6 8 6 8 15 24 24
165 161 162 149 145 139 133 125 119 113 103 98 93 86 76 67 67 60 61 56 53 49 47 44 40 37 33 27 27 24 20 23 24 24 18 11 8 4 7 7 3 7 20
166 168 167 161 153 142 140 136 132 119 113 104 105 92 80 74 69 70 62 60 56 51 48 45 42 39 39 40 38 30 26 27 25 24 22 16 11 6 5 352 5 356 38
168 170 169 168 159 150 147 146 140 132 127 128 118 109 99 84 67 88 72 63 59 55 50 47 40 36 34 36 39 39 39 33 30 23 23 16 11 3 357 356 1 11 6
166 173 169 168 159 155 151 149 143 139 139 133 131 123 110 97 78 90 78 70 63 57 52 47 43 35 35 33 35 37 36 36 35 27 25 19 9 0 351 353 358 359 18
172 169 171 166 162 160 160 156 150 149 145 143 138 133 120 106 99 98 80 77 71 62 55 49 45 37 31 29 29 33 34 32 33 32 29 21 16 8 3 354 350 331 5
171 174 172 169 166 166 165 161 158 154 151 147 143 137 124 115 116 108 94 89 81 70 59 52 44 36 25 23 26 28 31 29 22 25 26 22 18 17 21 19 14 16 2
175 176 172 171 170 169 166 163 162 163 157 153 145 136 129 121 110 117 102 98 93 82 62 52 43 33 25 21 24 20 21 14 12 12 15 17 18 18 21 29 21 17 8
174 172 170 171 170 169 165 167 167 163 159 155 149 142 133 134 119 104 105 99 95 88 68 46 27 26 24 24 27 21 7 0 359 2 4 8 12 15 18 18 24 24 18
169 169 170 171 170 170 170 170 170 164 157 158 159 156 156 146 132 130 124 113 100 94 80 48 29 24 28 28 25 14 8 1 356 356 358 2 1 3 3 4 5 9 14
170 171 171 170 171 173 174 175 174 173 173 173 174 173 169 166 159 146 142 124 109 98 96 63 12 12 16 9 10 12 12 6 0 358 356 354 351 346 347 351 351 353 339
171 171 172 173 173 177 181 184 185 188 190 189 185 181 172 170 169 168 164 147 113 95 59 44 16 14 16 9 2 4 4 3 1 355 349 345 343 345 346 347 344 345 337
171 172 173 177 179 181 187 189 195 199 200 199 195 190 182 185 188 182 178 177 168 165 109 11 359 355 350 352 354 355 357 357 356 351 347 345 344 342 343 341 341 337 334
172 175 177 178 183 185 187 188 200 195 205 198 193 189 186 190 192 183 181 187 191 158 24 345 347 346 345 344 344 343 346 349 348 346 344 344 342 340 340 338 339 338 333
178 180 179 182 184 186 190 193 190 205 207 204 211 201 189 185 183 187 203 186 198 190 270 314 330 336 335 335 336 336 337 341 341 342 342 342 341 338 338 338 339 338 333
181 182 181 185 185 186 190 193 193 188 186 196 206 196 195 192 194 196 197 179 201 223 250 279 301 318 327 329 329 329 327 331 336 337 338 339 339 337 335 337 336 338 332
172 177 178 181 183 185 187 191 193 191 192 190 188 197 203 202 200 206 211 215 234 228 235 257 285 310 318 320 317 313 317 320 327 332 331 333 334 334 331 331 328 328 321
179 180 179 181 182 185 189 193 195 198 200 203 206 208 198 202 211 215 210 221 232 230 225 243 265 292 305 305 297 299 308 310 316 318 322 324 326 327 324 324 324 324 323
177 178 179 179 184 188 194 199 202 204 209 213 218 209 199 208 219 217 207 221 219 212 212 226 251 280 291 288 287 293 299 303 306 310 314 316 318 319 320 317 318 317 317
177 175 179 185 187 191 199 204 208 211 214 216 209 191 207 208 228 211 196 194 187 188 195 212 247 271 272 270 279 287 291 295 300 304 305 307 310 312 314 313 313 316 314
175 173 177 184 188 193 194 198 199 200 203 207 204 197 197 211 203 190 178 175 176 179 188 204 230 239 253 272 272 277 282 288 291 295 294 300 303 306 309 306 309 309 315
171 171 171 170 171 173 173 177 187 194 198 197 195 197 193 185 177 170 169 170 176 180 190 215 212 226 238 247 265 283 284 278 283 284 290 295 299 301 301 298 299 301 303
164 159 160 164 166 168 172 180 186 189 193 190 181 175 173 172 170 170 174 175 180 186 209 222 220 249 262 256 256 258 261 262 263 263 291 291 292 293 292 289 294 300 300
155 157 159 163 168 174 179 181 180 179 177 171 170 173 173 174 177 179 181 188 185 193 203 215 232 235 254 276 277 261 288 290 287 281 289 288 289 290 286 285 288 295 299
Height
823 826 828 831 832 832 832 833 836 837 838 837 836 834 833 833 832 831 830 829 828 827 824 821 818 816 813 810 807 804 800 797 791 789 788 784 780 777 774 770 765 762 757
822 826 829 829 831 832 833 836 837 838 838 837 836 836 836 835 833 834 834 834 832 830 828 824 821 819 815 813 810 807 804 801 798 794 792 788 785 782 778 774 770 765 762
821 824 828 829 829 831 833 835 836 837 837 836 836 837 838 837 837 837 838 837 835 833 831 829 826 823 820 817 814 811 807 803 800 797 795 792 788 784 779 775 773 771 768
818 822 826 829 831 831 832 835 836 838 837 838 839 840 840 841 842 842 841 839 837 836 834 832 830 828 825 821 818 814 811 807 803 800 798 795 792 789 785 780 776 773 771
815 820 825 828 830 831 833 835 837 838 839 839 841 842 843 844 844 844 842 841 840 839 837 835 834 832 829 826 822 819 815 811 808 804 802 800 797 792 789 786 781 777 774
813 818 821 826 828 830 832 835 837 839 840 842 844 845 846 846 844 843 844 843 842 841 840 838 837 834 832 828 826 824 820 817 814 811 808 805 803 800 795 790 785 780 778
810 815 819 824 825 828 831 834 836 838 841 843 844 845 846 846 845 844 844 845 844 843 842 840 839 837 834 832 829 827 824 821 819 816 813 811 808 805 799 793 790 786 785
807 813 817 820 823 827 830 833 836 839 841 843 844 846 846 846 846 845 845 846 846 845 844 843 841 839 836 834 832 830 827 825 822 820 818 815 812 807 802 796 791 786 784
804 809 814 817 821 825 829 831 835 838 841 843 844 845 845 846 846 845 846 847 847 847 846 845 844 842 839 835 834 832 830 828 826 823 821 818 814 809 803 799 794 789 786
800 806 811 816 820 823 827 831 834 837 840 842 844 845 845 846 846 846 847 848 847 847 848 847 846 844 842 838 836 834 832 831 828 826 823 820 817 813 808 805 802 798 794
799 805 810 815 819 823 827 831 834 837 839 842 844 845 846 846 847 846 846 848 848 848 848 848 847 846 843 841 838 836 835 833 830 828 825 823 820 816 813 811 808 806 803
797 803 808 813 818 822 826 831 834 836 839 841 843 845 846 847 847 848 848 848 848 848 848 848 848 846 844 841 840 838 836 834 832 829 826 824 822 819 817 814 812 809 807
795 800 806 812 817 821 825 829 832 835 837 839 841 842 844 846 847 848 848 848 848 849 849 848 847 846 844 843 840 838 837 835 833 831 828 826 824 822 819 816 813 810 807
792 798 804 809 814 819 823 827 829 832 834 836 837 839 841 843 845 847 848 848 848 848 848 848 847 846 844 844 842 840 838 837 835 833 830 828 825 822 819 817 814 810 807
791 796 802 807 811 815 820 823 826 829 831 833 835 837 839 841 843 844 846 847 848 848 848 848 847 846 845 843 842 841 839 838 836 834 831 829 826 824 821 818 815 812 808
788 794 799 803 808 812 816 820 824 826 829 831 832 835 837 839 840 842 844 845 846 846 847 846 846 846 844 843 842 840 839 838 837 835 833 830 828 825 822 819 816 813 810
786 791 796 801 805 809 813 817 820 825 827 829 831 832 834 836 838 841 842 843 844 845 845 845 845 844 843 842 841 840 839 838 837 835 833 831 829 826 823 820 817 814 811
785 790 794 799 803 807 811 814 817 821 824 827 828 830 832 835 837 839 840 841 843 842 843 843 843 843 842 841 841 840 839 838 837 835 834 832 830 827 824 821 818 816 813
785 789 794 798 801 805 809 812 815 818 821 823 827 829 831 833 834 836 837 837 837 839 840 841 841 841 841 840 840 840 839 838 837 835 834 832 830 828 825 823 820 818 815
783 787 791 795 799 803 806 810 813 815 817 820 822 823 826 829 830 831 832 834 835 836 837 839 839 839 839 839 838 838 837 836 835 834 833 832 830 828 825 823 820 817 814
781 785 789 793 797 800 803 806 809 811 813 815 817 819 821 823 825 826 828 830 832 833 835 836 837 837 837 837 836 836 835 835 834 833 832 831 829 827 825 822 820 817 814
780 783 787 791 794 797 800 802 805 807 809 811 814 815 818 820 821 822 824 827 829 831 832 833 834 834 834 834 834 833 833 833 832 831 830 829 828 826 823 821 819 816 813
778 782 785 788 791 794 797 799 801 804 806 809 810 813 815 817 818 820 823 825 827 828 829 830 831 831 831 831 831 831 830 830 830 829 828 827 826 824 822 820 817 815 813
776 779 783 786 789 792 794 797 799 802 804 807 809 811 812 814 817 819 821 823 824 825 825 825 827 827 828 827 828 828 828 828 827 827 826 825 823 822 820 818 816 814 812
774 777 781 784 787 790 793 796 798 801 803 805 807 809 811 813 815 817 819 820 821 822 822 822 823 823 823 823 823 823 822 822 822 821 821 822 820 819 817 816 814 812 810
773 777 780 783 786 789 792 794 797 800 802 804 806 808 810 812 814 815 816 817 818 819 819 820 820 820 820 821 821 820 818 818 818 817 816 817 817 816 814 813 812 810 808